Regional Weather Roundup
Issued by NWS

Home | Current Version | Previous Version | Text Only | Print | Product List | Glossary On
Versions: 1 2 3 4 5 6 7 8 9 10 11 12 13 14 15 16 17 18 19 20 21 22 23 24 25 26 27 28 29 30 31 32 33 34 35 36 37 38 39 40 41 42 43 44 45 46 47 48 49 50
000
ASUS43 KDTX 012010
RWRMI
MICHIGAN HOURLY REGIONAL WEATHER ROUNDUP
NATIONAL WEATHER SERVICE DETROIT/PONTIAC MI
300 PM EST SUN FEB 01 2015

NOTE: "FAIR" INDICATES FEW OR NO CLOUDS BELOW 12,000 FEET WITH NO
SIGNIFICANT WEATHER AND/OR OBSTRUCTION TO VISIBILITY.

MIZ047>049-052>055-059>063-066>070-074>076-081>083-012100-
SOUTHEAST LOWER MICHIGAN

CITY           SKY/WX    TMP DP  RH WIND       PRES   REMARKS
ADRIAN         SNOW      22  20  92 E18G28    29.85F VSB 1/4 WCI   7
ALMA           LGT SNOW  15  12  89 NE21G32   30.01F WCI  -3
ANN ARBOR      SNOW      22  18  85 NE15G23   29.88F VSB 1/2 WCI   9
BAD AXE        LGT SNOW  15  12  87 NE16G22   30.07F WCI  -1
CARO           LGT SNOW  15  11  84 NE12G20   30.04F VSB 1   WCI   2
DETROIT CITY   HVY SNOW  22  17  81 NE17G24   29.95F VSB 1/4 WCI   8
DETROIT        HVY SNOW  23  20  88 NE17      29.91F VSB 1/4 WCI   9
FLINT          SNOW      18  12  77 NE18G25   29.97F VSB 1/2 WCI   2
GROSSE ILE     LGT SNOW  23  19  86 NE21      29.90F VSB 3/4 WCI   8
HILLSDALE      SNOW      23  21  92 E16G23    29.79F VSB 1/4 WCI   9
HOWELL         SNOW      18  15  89 NE13G18   29.90F VSB 1/2 WCI   4

CITY           SKY/WX    TMP DP  RH WIND       PRES   REMARKS
JACKSON        SNOW      20  18  92 NE8G17    29.84F VSB 1/4 WCI  10
LAMBERTVILLE   SNOW      27  23  86 E12G18    29.85F VSB 1/2 WCI  16
LANSING        SNOW      16  12  84 NE18G29   29.92F VSB 1/4 WCI   0
LAPEER         LGT SNOW  16  12  84 NE15G21   30.00F WCI   1
MASON          SNOW      17  14  87 NE17      29.89F VSB 1/2 WCI   2
MONROE         SNOW      25  21  86 NE14G23   29.86F VSB 1/2 WCI  13
MT. CLEMENS    SNOW      21  17  87 NE15      29.94F VSB 1/2 WCI   7
PONTIAC        SNOW      19  15  84 NE16      29.92F VSB 1/2 WCI   4
PORT HOPE        N/A     17  10  74 NE21G28   30.09F WCI   0
PORT HURON     LGT SNOW  18  16  93 NE13G18   30.02S WCI   4
TRI CITIES     SNOW      17  11  77 NE24G32   30.05F VSB 1/2 WCI  -1
TROY           SNOW      23  19  85 NE10G17   29.97F VSB 1/2 WCI  12
SAGINAW HB     LGT SNOW  18  14  86 NE17G23   30.04F WCI   2
$$
MIZ043>046-050>051-056>058-064>065-071>073-077>080-012100-
SOUTHWEST LOWER MICHIGAN

CITY           SKY/WX    TMP DP  RH WIND       PRES   REMARKS
BATTLE CREEK   HVY SNOW  20  15  81 NE22G28   29.83F VSB 1/4 WCI   3
BENTON HARBOR  SNOW      20  18  92 E21G30    29.76F VSB 1/2 WCI   4
BIG RAPIDS     LGT SNOW  14  10  86 NE13G18   30.00F WCI  -1
COLDWATER      SNOW      23  21  92 NE15G22   29.80F VSB 1/2 WCI  10
FREMONT        LGT SNOW  15  10  79 E16G26    29.97F WCI  -1
HOLLAND        SNOW      18  13  80 E18G29    29.87F VSB 1/2 WCI   2
GRAND RAPIDS   SNOW      15  11  83 NE28G39   29.90F VSB 1/2 WCI  -5
IONIA          LGT SNOW  17  13  86 NE22G30   29.92F VSB 3/4 WCI  -1
KALAMAZOO      SNOW      21  16  81 NE10G20   29.82F VSB 1/2 WCI  10
LUDINGTON      LGT SNOW  16  10  77 E10G20    30.03F WCI   3
MARSHALL       SNOW      19  16  90 NE10G17   29.83F VSB 1/4 WCI   7
MOUNT PLEASANT LGT SNOW  15  10  82 NE12G18   30.03F VSB 1   WCI   2
MUSKEGON       SNOW      17  10  74 NE20G39   29.93F VSB 1/2 WCI   1
SOUTH HAVEN    SNOW      21  17  84 E18G29    29.79F VSB 1/2 WCI   6
$$
MIZ016>042-012100-
NORTHERN LOWER MICHIGAN

CITY           SKY/WX    TMP DP  RH WIND       PRES   REMARKS
ALPENA         MIX PCPN   7   2  80 NE15      30.21F WCI -10
BEAVER ISLAND  CLOUDY     1  -8  67 NE5G16    30.23F WCI  -9
BELLAIRE       CLOUDY    10  -1  59 NE8       30.17F WCI  -1
CADILLAC       LGT SNOW   9   4  80 NE14G21   30.00F WCI  -7
CHARLEVOIX     CLOUDY     7   0  73 NE13G20   30.21F WCI  -9
FRANKFORT      CLOUDY    12   3  67 NE10G17   30.11F WCI  -1
GAYLORD        CLOUDY     5  -2  72 NE16G22   30.10F WCI -14
GRAYLING       CLOUDY     8   0  69 NE13      30.10F WCI  -8
HARBOR SPRINGS CLOUDY     6  -1  70 NE10      30.19F WCI  -8
HOUGHTON LAKE  LGT SNOW  10   2  69 NE17      30.06F WCI  -8
MANISTEE       CLOUDY    12   5  73 NE14G21   30.07F WCI  -3
OSCODA         LGT SNOW  12   8  81 NE16G25   30.15F WCI  -4
PELLSTON       CLOUDY     6  -1  73 NE13G21   30.22F WCI -10
TRAVERSE CITY  CLOUDY    11   1  64 NE13G21   30.12F WCI  -4
$$
MIZ007>008-015-012100-
EASTERN UPPER MICHIGAN

CITY           SKY/WX    TMP DP  RH WIND       PRES   REMARKS
KINROSS        CLOUDY     0 -15  50 E3        30.27F
MACKINAC ISLAN CLOUDY     0  -9  63 NE10      30.25F WCI -16
NEWBERRY       CLOUDY     0 -11  59 NE6       30.25F WCI -12
S. S. MARIE    CLOUDY     0 -15  49 CALM      30.27F
MUNISING         N/A     11   0  61 NE14      30.26F WCI  -5
$$
MIZ004>006-011>014-085-012100-
CENTRAL UPPER MICHIGAN

CITY           SKY/WX    TMP DP  RH WIND       PRES   REMARKS
MANISTIQUE     CLOUDY     4 -11  50 N12G18    30.24F WCI -12
ESCANABA       CLOUDY     9  -2  61 NE10      30.23F WCI  -6
MENOMINEE      CLOUDY     9  -2  61 E18G25    30.19F WCI -10
SAWYER-GWINN   LGT SNOW   9   1  72 NE14      30.20F WCI  -8
$$
MIZ001>003-009>011-084-012100-
WESTERN UPPER MICHIGAN

CITY           SKY/WX    TMP DP  RH WIND       PRES   REMARKS
IRON MOUNTAIN  CLOUDY    11   1  64 NE12      30.16F WCI  -3
HOUGHTON       FLURRIES   9  -2  61 N8        30.25F WCI  -3
COPPER HARBOR    N/A     10   0  63 E7        30.31F WCI  -1
IRONWOOD       CLOUDY    12   1  62 NE12      30.19F WCI  -2
$$

ABBREVIATIONS USED IN REMARKS
   TC - TEMPERATURE IN CELSIUS
  WCI - WIND CHILL INDEX
   HX - HEAT INDEX
  VSB - VISIBILITY



USA.gov is the U.S. government's official web portal to all federal, state and local government web resources and services.